Regional Weather Roundup
Issued by NWS Northern Indiana

Home | Current Version | Previous Version | Graphics & Text | Print | Product List | Glossary On
Versions: 1 2 3 4 5 6 7 8 9 10 11 12 13 14 15 16 17 18 19 20 21 22 23 24 25 26 27 28 29 30 31 32 33 34 35 36 37 38 39 40 41 42 43 44 45 46 47 48 49 50
000
ASUS43 KIWX 251600
RWRIWX

KIWX WEATHER ROUNDUP
NATIONAL WEATHER SERVICE NORTHERN INDIANA
1100 AM EST THU DEC 25 2014

NOTE: "FAIR" INDICATES FEW OR NO CLOUDS BELOW 12,000 FEET WITH NO
SIGNIFICANT WEATHER AND/OR OBSTRUCTIONS TO VISIBILITY.

* THESE STATIONS ARE NOT UNDER NWS QUALITY CONTROL. THEY ALSO MAY NOT
  REPORT WEATHER SUCH AS PRECIPITATION OR FOG.

INZ001>027-251700-
NORTHERN INDIANA

CITY           SKY/WX    TMP DP  RH WIND       PRES   REMARKS
GARY*          CLOUDY    37  27  65 SW7       29.98R
KNOX*          CLOUDY    35  28  74 W16G23    29.99R WCI  25
SOUTH BEND     CLOUDY    36  29  75 SW17G25   29.98R
GOSHEN         CLOUDY    35  29  78 W16       29.98R WCI  25
WARSAW*        CLOUDY    34  30  86 W14G22    30.00R WCI  24
ANGOLA*        CLOUDY    34  28  80 W12       29.97R WCI  25
FORT WAYNE     CLOUDY    36  30  79 SW15      30.02R

$$
INZ028>050-251700-
CENTRAL INDIANA

CITY           SKY/WX    TMP DP  RH WIND       PRES   REMARKS
LAFAYETTE      CLOUDY    36  30  79 SW12G18   30.04R
KOKOMO*        CLOUDY    36  28  75 W17       30.04R
MUNCIE*        CLOUDY    36  29  75 W14       30.05R
INDIANAPOLIS   CLOUDY    35  30  82 SW13      30.08R WCI  26

$$
MIZ043>046-050>051-056>058-064>065-071>073-077>080-251700-
SOUTHWEST LOWER MICHIGAN

CITY           SKY/WX    TMP DP  RH WIND       PRES   REMARKS
BATTLE CREEK   CLOUDY    36  28  73 W21G31    29.93R
BENTON HARBOR  CLOUDY    35  30  82 SW13G24   29.95R WCI  26
COLDWATER*     CLOUDY    34  29  82 MISG      29.95R
HILLSDALE*     CLOUDY    36  33  88 W14G24    29.94R
HOLLAND        CLOUDY    37  30  75 SW14      29.92R
GRAND RAPIDS   CLOUDY    36  30  79 SW15      29.90R
KALAMAZOO      CLOUDY    36  28  73 SW14G23   29.95R
STURGIS*       CLOUDY    34  30  86 W12G17    29.96R WCI  25
THREE RIVERS*  CLOUDY    35  29  79 W12G18    29.96R WCI  27

$$
OHZ001>008-015>018-024>025-251700-
NORTHWEST OHIO

CITY           SKY/WX    TMP DP  RH WIND       PRES   REMARKS
DEFIANCE       CLOUDY    38  31  76 SW10G21   30.00R
FINDLAY        CLOUDY    39  33  79 SW17      29.99R
TOLEDO EXPRESS CLOUDY    38  32  79 W17       29.96R
TOLEDO METCALF CLOUDY    40  32  73 SW16      29.97R
LIMA           CLOUDY    39  32  76 SW18      30.01R

$$
AND FOR LAKE MICHIGAN COASTAL AND OPEN LAKE BUOY OBSERVATIONS

STATION/POSITION TEMP    WIND        PRES    VSBY  WAVE
                 AIR SEA DIR/SP/G                  HT/PER
                 (F)     (DEG/KT/KT) (MB)    (MI)  (FT/S)
CALUMET HARBOR    35     220/  7/ 14 1013.3R
MICHIGAN CITY     35     200/ 18/ 20   N/A
SAINT JOSEPH      36     220/ 22/ 25 1014.2R

$$
&&


USA.gov is the U.S. government's official web portal to all federal, state and local government web resources and services.